Погода в Майдакове

Россия / Ивановская область     56°53′52″N   41°49′08″E
темп.,
°C
ветер,
м/с
пор.,
м/с
влажн.,
%
обл.,
%
осадки,
мм/ч
давл.,
гПа
погр.,
м
24 января, пн
пн2400:00−20зсз11100100 0.0 10359
03:00−21сз11100100 0.0 10369
06:00−21з11100100 0.0 10379
09:00−20ю22100100 0.1 103719
12:00−11зюз129692 0.0 1036117
15:00−10ююз239730 0.0 103565
18:00−17ююз2210093 0.0 103513
21:00−19ююз22100100 0.0 103420
25 января, вт
вт2500:00−20ююз24100100 0.0 103240
03:00−20ююз24100100 0.1 103047
06:00−20ююз24100100 0.0 102951
09:00−18ююз37100100 0.1 102795
12:00−11ю489698 0.0 1024211
15:00−9ююз399322 0.0 1021305
18:00−13ю3109647 0.0 1020177
21:00−14ю3109669 0.0 1018167
26 января, ср
ср2600:00−16ю3799100 0.0 1017118
03:00−15ю2797100 0.0 1016139
06:00−17ю239999 0.0 101541
09:00−21ююз2210085 0.0 101615
12:00−13ююз2393100 0.1 1015161
15:00−10зюз1293100 0.4 1016210
18:00−13з119868 0.1 10169
21:00−17ссз1110096 0.1 10169
27 января, чт
чт2700:00−19сз22100100 0.0 101711
03:00−21сз11100100 0.1 10179
06:00−22зсз11100100 0.1 10179
09:00−23зюз11100100 0.1 101810
12:00−14ююз2296100 0.0 1017142
15:00−12ю2496100 0.1 1016157
18:00−14ююв2699100 0.0 101692
21:00−14ю3897100 0.1 1015171
28 января, пт
пт2800:00−13ююв3996100 0.0 1014212
03:00−12ююв41095100 0.0 1013257
06:00−12ююв4119497 0.0 1011292
09:00−12ююв5129369 0.0 1011332
12:00−10ююв51391100 0.0 1010423
15:00−8ююв51290100 0.0 1009528
18:00−8ююв51391100 0.0 1007564
21:00−7юв51294100 0.3 1006608